Weather History for KCVG - February, 2014

Change the Weather History Date:

Tuesday, February 18, 2014

  Actual Average Record
Temperature  
Mean Temperature 42 °F 35 °F  
Max Temperature 50 °F 44 °F 68 °F (1948)
Min Temperature 34 °F 27 °F -8 °F (1936)
Degree Days  
Heating Degree Days 23 30  
Month to date heating degree days 709 572  
Since 1 July heating degree days 3932 3544  
Cooling Degree Days 0 0  
Month to date cooling degree days 0 0  
Year to date cooling degree days 0 0  
Moisture  
Dew Point 29 °F    
Average Humidity 64    
Maximum Humidity 82    
Minimum Humidity 46    
Precipitation  
Precipitation 0.00 in 0.10 in 2.38 in (2000)
Month to date precipitation 2.16 1.83  
Year to date precipitation 4.96 4.83  
Snow  
Snow 0.00 in 0.20 in 2.40 in (1979)
Month to date snowfall 9.8 4.6  
Since 1 July snowfall 43.0 16.7  
Snow Depth 2.00 in    
Sea Level Pressure  
Sea Level Pressure 29.99 in    
Wind  
Wind Speed 11 mph (SSW)    
Max Wind Speed 20 mph    
Max Gust Speed 29 mph    
Visibility 10 miles    
Events      
T = Trace of Precipitation, MM = Missing Value Source: NWS Daily Summary

Daily Weather History Graph

Daily Weather History Graph

Search for Another Location

Airport or City:

Trip Planner

Search our weather history database for the weather conditions in past years. The results will help you decide how hot, cold, wet, or windy it might be!

Date:

Astronomy

Feb. 18, 2014 Rise Set
Actual Time 7:26 AM EST 6:19 PM EST
Civil Twilight 6:59 AM EST 6:46 PM EST
Nautical Twilight 6:27 AM EST 7:17 PM EST
Astronomical Twilight 5:57 AM EST 7:48 PM EST
Moon 10:09 PM EST (2/18) 9:00 AM EST (2/18)
Length of Visible Light 11h 47m
Length of Day
10h 53m
Waning Gibbous, 87% of the Moon is Illuminated
Feb 18
Waning Gibbous
Feb 22
Last Quarter
Mar 1
New
Mar 8
First Quarter
Mar 16
Full

Hourly Weather History & Observations

Time (EST) Temp. Windchill Dew Point Humidity Pressure Visibility Wind Dir Wind Speed Gust Speed Precip Events Conditions
12:52 AM 37.0 °F 27.0 °F 30.9 °F 79% 29.96 in 8.0 mi SW 18.4 mph 26.5 mph N/A   Scattered Clouds
1:52 AM 36.0 °F 26.3 °F 30.0 °F 79% 29.96 in 8.0 mi SW 16.1 mph - N/A   Clear
2:52 AM 36.0 °F 27.5 °F 30.0 °F 79% 29.98 in 9.0 mi SW 12.7 mph 20.7 mph N/A   Clear
3:52 AM 36.0 °F 27.1 °F 28.9 °F 76% 29.99 in 10.0 mi SW 13.8 mph 20.7 mph N/A   Clear
4:52 AM 36.0 °F 28.5 °F 28.0 °F 73% 30.02 in 10.0 mi SW 10.4 mph - N/A   Clear
5:52 AM 36.0 °F 29.0 °F 28.0 °F 73% 30.06 in 10.0 mi WSW 9.2 mph - N/A   Partly Cloudy
6:52 AM 35.1 °F 28.6 °F 27.0 °F 72% 30.08 in 10.0 mi WSW 8.1 mph - N/A   Clear
7:52 AM 35.1 °F 27.9 °F 27.0 °F 72% 30.10 in 10.0 mi SW 9.2 mph - N/A   Clear
8:52 AM 37.9 °F 31.5 °F 27.0 °F 65% 30.12 in 10.0 mi SW 9.2 mph - N/A   Clear
9:52 AM 41.0 °F 34.7 °F 27.0 °F 57% 30.13 in 10.0 mi SW 10.4 mph 18.4 mph N/A   Clear
10:52 AM 43.0 °F 36.8 °F 27.0 °F 53% 30.13 in 10.0 mi SW 11.5 mph - N/A   Clear
11:52 AM 43.0 °F 37.2 °F 28.9 °F 58% 30.11 in 10.0 mi South 10.4 mph - N/A   Clear
12:52 PM 45.0 °F 39.3 °F 28.9 °F 53% 30.07 in 10.0 mi South 11.5 mph - N/A   Partly Cloudy
1:52 PM 46.9 °F - 28.9 °F 50% 30.04 in 10.0 mi South 11.5 mph - N/A   Mostly Cloudy
2:52 PM 48.9 °F - 28.0 °F 44% 30.02 in 10.0 mi South 10.4 mph - N/A   Mostly Cloudy
3:52 PM 48.9 °F - 28.0 °F 44% 29.99 in 10.0 mi South 9.2 mph - N/A   Overcast
4:52 PM 46.0 °F 41.4 °F 30.9 °F 56% 29.95 in 10.0 mi South 9.2 mph - N/A   Overcast
5:52 PM 44.1 °F 38.6 °F 30.0 °F 58% 29.92 in 10.0 mi SSE 10.4 mph - N/A   Overcast
6:52 PM 42.1 °F 36.1 °F 30.0 °F 62% 29.90 in 10.0 mi SSE 10.4 mph - N/A   Overcast
7:52 PM 43.0 °F 38.2 °F 28.9 °F 58% 29.90 in 10.0 mi South 8.1 mph - N/A   Mostly Cloudy
8:52 PM 44.1 °F 40.1 °F 27.0 °F 51% 29.88 in 10.0 mi South 6.9 mph - N/A   Partly Cloudy
9:52 PM 41.0 °F 34.7 °F 28.0 °F 60% 29.86 in 10.0 mi South 10.4 mph - N/A   Scattered Clouds
10:52 PM 43.0 °F 37.2 °F 28.0 °F 56% 29.83 in 10.0 mi South 10.4 mph - N/A   Scattered Clouds
11:52 PM 46.0 °F 40.6 °F 28.0 °F 50% 29.81 in 10.0 mi South 11.5 mph - N/A   Mostly Cloudy